Time,TemperatureF,DewpointF,PressureIn,WindDirection,WindDirectionDegrees,WindSpeedMPH,WindSpeedGustMPH,Humidity,HourlyPrecipIn,Conditions,Clouds,dailyrainin,SoftwareType,DateUTC
2013-05-12 00:01:00,60.9,0.0,29.88,SSE,148,0.0,0.0,0,0.00,,CLR,0.00,VWS V14.01,2013-05-12 04:01:00,
2013-05-12 00:06:00,60.9,0.0,29.88,SE,129,0.0,0.0,0,0.00,,CLR,0.00,VWS V14.01,2013-05-12 04:06:00,
2013-05-12 00:11:00,61.0,0.0,29.88,SE,128,0.0,0.0,0,0.00,,CLR,0.00,VWS V14.01,2013-05-12 04:11:00,
2013-05-12 00:16:00,61.0,0.0,29.88,SE,129,0.0,0.0,0,0.00,,CLR,0.00,VWS V14.01,2013-05-12 04:16:00,
2013-05-12 00:21:00,61.0,0.0,29.88,SE,129,0.0,0.0,0,0.00,,CLR,0.00,VWS V14.01,2013-05-12 04:21:00,
2013-05-12 00:26:00,61.1,0.0,29.88,East,84,0.0,0.0,0,0.00,,CLR,0.00,VWS V14.01,2013-05-12 04:26:00,
2013-05-12 00:31:00,61.1,0.0,29.89,SSE,162,0.0,0.0,0,0.00,,CLR,0.00,VWS V14.01,2013-05-12 04:31:00,
2013-05-12 00:36:00,60.9,0.0,29.89,East,91,0.0,0.0,0,0.01,,CLR,0.01,VWS V14.01,2013-05-12 04:36:00,
2013-05-12 00:41:00,60.8,0.0,29.89,East,90,0.0,0.0,0,0.01,,CLR,0.01,VWS V14.01,2013-05-12 04:41:00,
2013-05-12 00:46:00,60.6,0.0,29.88,East,90,0.0,0.0,0,0.01,,CLR,0.01,VWS V14.01,2013-05-12 04:46:00,
2013-05-12 00:51:00,60.5,0.0,29.88,East,90,0.0,0.0,0,0.01,,CLR,0.01,VWS V14.01,2013-05-12 04:51:00,
2013-05-12 00:56:00,60.4,0.0,29.88,East,91,0.0,0.0,0,0.01,,CLR,0.01,VWS V14.01,2013-05-12 04:56:00,
2013-05-12 01:01:00,60.3,0.0,29.88,East,91,0.0,0.0,0,0.01,,OVC060,0.01,VWS V14.01,2013-05-12 05:01:00,
2013-05-12 01:06:00,60.3,0.0,29.88,East,90,0.0,0.0,0,0.01,,OVC060,0.01,VWS V14.01,2013-05-12 05:06:00,
2013-05-12 01:11:00,60.1,0.0,29.88,East,90,0.0,0.0,0,0.01,,OVC060,0.01,VWS V14.01,2013-05-12 05:11:00,
2013-05-12 01:16:00,59.9,0.0,29.88,East,91,0.0,0.0,0,0.01,,OVC060,0.01,VWS V14.01,2013-05-12 05:16:00,
2013-05-12 01:21:00,59.5,0.0,29.88,East,91,0.0,0.0,0,0.01,,OVC060,0.01,VWS V14.01,2013-05-12 05:21:00,
2013-05-12 01:26:00,59.1,0.0,29.88,East,90,0.0,0.0,0,0.01,,OVC060,0.01,VWS V14.01,2013-05-12 05:26:00,
2013-05-12 01:31:00,58.8,0.0,29.88,East,91,0.0,0.0,0,0.01,,OVC060,0.01,VWS V14.01,2013-05-12 05:31:00,
2013-05-12 01:36:00,58.5,0.0,29.88,East,90,0.0,0.0,0,0.01,,OVC060,0.01,VWS V14.01,2013-05-12 05:36:00,
2013-05-12 01:41:00,58.2,0.0,29.88,East,91,0.0,0.0,0,0.01,,OVC060,0.01,VWS V14.01,2013-05-12 05:41:00,
2013-05-12 01:47:00,57.9,0.0,29.88,East,90,0.0,0.0,0,0.01,,OVC060,0.01,VWS V14.01,2013-05-12 05:47:00,
2013-05-12 01:52:00,57.6,0.0,29.88,East,90,0.0,0.0,0,0.01,,OVC060,0.01,VWS V14.01,2013-05-12 05:52:00,
2013-05-12 01:57:00,57.5,0.0,29.88,East,91,0.0,0.0,0,0.01,,OVC060,0.01,VWS V14.01,2013-05-12 05:57:00,
2013-05-12 02:02:00,57.3,0.0,29.88,East,90,0.0,0.0,0,0.00,,CLR,0.01,VWS V14.01,2013-05-12 06:02:00,
2013-05-12 02:07:00,57.1,0.0,29.88,East,90,0.0,0.0,0,0.00,,CLR,0.01,VWS V14.01,2013-05-12 06:07:00,
2013-05-12 02:12:00,57.0,0.0,29.88,East,90,0.0,0.0,0,0.00,,CLR,0.01,VWS V14.01,2013-05-12 06:12:00,
2013-05-12 02:17:00,56.9,0.0,29.88,East,90,0.0,0.0,0,0.00,,CLR,0.01,VWS V14.01,2013-05-12 06:17:00,
2013-05-12 02:22:00,56.7,0.0,29.88,East,90,0.0,0.0,0,0.00,,CLR,0.01,VWS V14.01,2013-05-12 06:22:00,
2013-05-12 02:27:00,56.6,0.0,29.88,East,90,0.0,0.0,0,0.00,,CLR,0.01,VWS V14.01,2013-05-12 06:27:00,
2013-05-12 02:32:00,56.5,0.0,29.88,East,90,0.0,0.0,0,0.00,,CLR,0.01,VWS V14.01,2013-05-12 06:32:00,
2013-05-12 02:37:00,56.3,0.0,29.88,East,90,0.0,0.0,0,0.00,,CLR,0.01,VWS V14.01,2013-05-12 06:37:00,
2013-05-12 02:42:00,56.1,0.0,29.88,East,90,0.0,0.0,0,0.00,,CLR,0.01,VWS V14.01,2013-05-12 06:42:00,
2013-05-12 02:47:00,55.8,0.0,29.88,East,90,0.0,0.0,0,0.00,,CLR,0.01,VWS V14.01,2013-05-12 06:47:00,
2013-05-12 02:52:00,55.7,0.0,29.88,East,90,0.0,0.0,0,0.00,,CLR,0.01,VWS V14.01,2013-05-12 06:52:00,
2013-05-12 02:57:00,55.6,0.0,29.88,East,90,0.0,0.0,0,0.00,,CLR,0.01,VWS V14.01,2013-05-12 06:57:00,
2013-05-12 03:02:00,55.4,0.0,29.88,East,90,0.0,0.0,0,0.00,,CLR,0.01,VWS V14.01,2013-05-12 07:02:00,
2013-05-12 03:07:00,55.1,0.0,29.88,East,90,0.0,0.0,0,0.00,,CLR,0.01,VWS V14.01,2013-05-12 07:07:00,
2013-05-12 03:12:00,54.9,0.0,29.89,East,90,0.0,0.0,0,0.00,,CLR,0.01,VWS V14.01,2013-05-12 07:12:00,
2013-05-12 03:17:00,54.5,0.0,29.89,East,90,0.0,0.0,0,0.00,,CLR,0.01,VWS V14.01,2013-05-12 07:17:00,
2013-05-12 03:22:00,54.2,0.0,29.89,East,90,0.0,0.0,0,0.00,,CLR,0.01,VWS V14.01,2013-05-12 07:22:00,
2013-05-12 03:27:00,53.9,0.0,29.89,East,91,0.0,0.0,0,0.00,,CLR,0.01,VWS V14.01,2013-05-12 07:27:00,
2013-05-12 03:32:00,53.6,0.0,29.90,East,90,0.0,0.0,0,0.00,,CLR,0.01,VWS V14.01,2013-05-12 07:32:00,
2013-05-12 03:37:00,53.3,0.0,29.90,East,90,0.0,0.0,0,0.00,,CLR,0.01,VWS V14.01,2013-05-12 07:37:00,
2013-05-12 03:42:00,53.0,0.0,29.90,East,90,0.0,0.0,0,0.00,,CLR,0.01,VWS V14.01,2013-05-12 07:42:00,
2013-05-12 03:47:00,52.8,0.0,29.90,East,90,0.0,0.0,0,0.00,,CLR,0.01,VWS V14.01,2013-05-12 07:47:00,
2013-05-12 03:52:00,52.5,0.0,29.90,East,90,0.0,0.0,0,0.00,,CLR,0.01,VWS V14.01,2013-05-12 07:52:00,
2013-05-12 03:57:00,52.4,0.0,29.90,East,90,0.0,0.0,0,0.00,,CLR,0.01,VWS V14.01,2013-05-12 07:57:00,
2013-05-12 04:02:00,52.2,0.0,29.90,East,90,0.0,0.0,0,0.00,,CLR,0.01,VWS V14.01,2013-05-12 08:02:00,
2013-05-12 04:07:00,51.9,0.0,29.89,East,91,0.0,0.0,0,0.00,,CLR,0.01,VWS V14.01,2013-05-12 08:07:00,
2013-05-12 04:12:00,51.7,0.0,29.89,East,90,0.0,0.0,0,0.00,,CLR,0.01,VWS V14.01,2013-05-12 08:12:00,
2013-05-12 04:17:00,51.5,0.0,29.89,East,90,0.0,0.0,0,0.00,,CLR,0.01,VWS V14.01,2013-05-12 08:17:00,
2013-05-12 04:22:00,51.2,0.0,29.89,East,90,0.0,0.0,0,0.00,,CLR,0.01,VWS V14.01,2013-05-12 08:22:00,
2013-05-12 04:27:00,51.1,0.0,29.89,East,90,0.0,0.0,0,0.00,,CLR,0.01,VWS V14.01,2013-05-12 08:27:00,
2013-05-12 04:32:00,50.8,0.0,29.89,East,90,0.0,0.0,0,0.00,,CLR,0.01,VWS V14.01,2013-05-12 08:32:00,
2013-05-12 04:37:00,50.7,0.0,29.89,East,90,0.0,0.0,0,0.00,,CLR,0.01,VWS V14.01,2013-05-12 08:37:00,
2013-05-12 04:42:00,50.5,0.0,29.89,East,90,0.0,0.0,0,0.00,,CLR,0.01,VWS V14.01,2013-05-12 08:42:00,
2013-05-12 04:47:00,50.3,0.0,29.89,East,91,0.0,0.0,0,0.00,,CLR,0.01,VWS V14.01,2013-05-12 08:47:00,
2013-05-12 04:52:00,50.1,0.0,29.89,East,90,0.0,0.0,0,0.00,,CLR,0.01,VWS V14.01,2013-05-12 08:52:00,
2013-05-12 04:57:00,49.9,0.0,29.89,East,90,0.0,0.0,0,0.00,,CLR,0.01,VWS V14.01,2013-05-12 08:57:00,
2013-05-12 05:02:00,49.7,0.0,29.90,East,90,0.0,0.0,0,0.00,,CLR,0.01,VWS V14.01,2013-05-12 09:02:00,
2013-05-12 05:07:00,49.5,0.0,29.90,East,90,0.0,0.0,0,0.00,,CLR,0.01,VWS V14.01,2013-05-12 09:07:00,
2013-05-12 05:12:00,49.4,0.0,29.89,East,90,0.0,0.0,0,0.00,,CLR,0.01,VWS V14.01,2013-05-12 09:12:00,
2013-05-12 05:17:00,49.3,0.0,29.90,East,90,0.0,0.0,0,0.00,,CLR,0.01,VWS V14.01,2013-05-12 09:17:00,
2013-05-12 05:22:00,49.1,0.0,29.90,East,90,0.0,0.0,0,0.00,,CLR,0.01,VWS V14.01,2013-05-12 09:22:00,
2013-05-12 05:27:00,48.8,0.0,29.90,East,90,0.0,0.0,0,0.00,,CLR,0.01,VWS V14.01,2013-05-12 09:27:00,
2013-05-12 05:32:00,48.6,0.0,29.90,East,90,0.0,0.0,0,0.00,,CLR,0.01,VWS V14.01,2013-05-12 09:32:00,
2013-05-12 05:37:00,48.5,0.0,29.90,East,90,0.0,0.0,0,0.00,,CLR,0.01,VWS V14.01,2013-05-12 09:37:00,
2013-05-12 05:42:00,48.3,0.0,29.91,East,90,0.0,0.0,0,0.00,,CLR,0.01,VWS V14.01,2013-05-12 09:42:00,
2013-05-12 05:47:00,48.2,0.0,29.91,East,90,0.0,0.0,0,0.00,,CLR,0.01,VWS V14.01,2013-05-12 09:47:00,
2013-05-12 05:52:00,48.0,0.0,29.90,East,90,0.0,0.0,0,0.00,,CLR,0.01,VWS V14.01,2013-05-12 09:52:00,
2013-05-12 05:57:00,47.9,0.0,29.90,East,90,0.0,0.0,0,0.00,,CLR,0.01,VWS V14.01,2013-05-12 09:57:00,
2013-05-12 06:02:00,47.7,0.0,29.91,East,90,0.0,0.0,0,0.00,,CLR,0.01,VWS V14.01,2013-05-12 10:02:00,
2013-05-12 06:07:00,47.6,0.0,29.91,East,90,0.0,0.0,0,0.00,,CLR,0.01,VWS V14.01,2013-05-12 10:07:00,
2013-05-12 06:12:00,47.4,0.0,29.91,East,90,0.0,0.0,0,0.00,,CLR,0.01,VWS V14.01,2013-05-12 10:12:00,
2013-05-12 06:17:00,47.2,0.0,29.91,East,90,0.0,0.0,0,0.00,,CLR,0.01,VWS V14.01,2013-05-12 10:17:00,
2013-05-12 06:22:00,47.2,0.0,29.92,East,90,0.0,0.0,0,0.00,,CLR,0.01,VWS V14.01,2013-05-12 10:22:00,
2013-05-12 06:27:00,47.1,0.0,29.92,East,91,0.0,0.0,0,0.00,,CLR,0.01,VWS V14.01,2013-05-12 10:27:00,
2013-05-12 06:32:00,46.9,0.0,29.92,East,90,0.0,0.0,0,0.00,,CLR,0.01,VWS V14.01,2013-05-12 10:32:00,
2013-05-12 06:37:00,47.0,0.0,29.92,East,90,0.0,0.0,0,0.00,,CLR,0.01,VWS V14.01,2013-05-12 10:37:00,
2013-05-12 06:42:00,47.1,0.0,29.92,East,90,0.0,0.0,0,0.00,,CLR,0.01,VWS V14.01,2013-05-12 10:42:00,
2013-05-12 06:47:00,47.1,0.0,29.92,East,90,0.0,0.0,0,0.00,,CLR,0.01,VWS V14.01,2013-05-12 10:47:00,
2013-05-12 06:52:00,47.0,0.0,29.92,East,90,0.0,0.0,0,0.00,,CLR,0.01,VWS V14.01,2013-05-12 10:52:00,
2013-05-12 06:57:00,47.0,0.0,29.93,East,90,0.0,0.0,0,0.00,,CLR,0.01,VWS V14.01,2013-05-12 10:57:00,
2013-05-12 07:02:00,47.1,0.0,29.93,East,90,0.0,0.0,0,0.00,,CLR,0.01,VWS V14.01,2013-05-12 11:02:00,
2013-05-12 07:07:00,47.2,0.0,29.93,East,90,0.0,0.0,0,0.00,,CLR,0.01,VWS V14.01,2013-05-12 11:07:00,
2013-05-12 07:12:00,47.4,0.0,29.94,East,90,0.0,0.0,0,0.00,,CLR,0.01,VWS V14.01,2013-05-12 11:12:00,
2013-05-12 07:17:00,47.7,0.0,29.94,East,90,0.0,0.0,0,0.00,,CLR,0.01,VWS V14.01,2013-05-12 11:17:00,
2013-05-12 07:22:00,47.9,0.0,29.94,East,90,0.0,0.0,0,0.00,,CLR,0.01,VWS V14.01,2013-05-12 11:22:00,
2013-05-12 07:27:00,48.2,0.0,29.94,East,90,0.0,0.0,0,0.00,,CLR,0.01,VWS V14.01,2013-05-12 11:27:00,
2013-05-12 07:32:00,48.6,0.0,29.94,SE,139,0.0,0.0,0,0.00,,CLR,0.01,VWS V14.01,2013-05-12 11:32:00,
2013-05-12 07:37:00,48.9,0.0,29.94,SE,136,0.0,0.0,0,0.00,,CLR,0.01,VWS V14.01,2013-05-12 11:37:00,
2013-05-12 07:42:00,49.1,0.0,29.94,SE,136,0.0,0.0,0,0.00,,CLR,0.01,VWS V14.01,2013-05-12 11:42:00,
2013-05-12 07:47:00,49.3,0.0,29.94,SE,136,0.0,0.0,0,0.00,,CLR,0.01,VWS V14.01,2013-05-12 11:47:00,
2013-05-12 07:52:00,49.7,0.0,29.94,SE,136,0.0,0.0,0,0.00,,CLR,0.01,VWS V14.01,2013-05-12 11:52:00,
2013-05-12 07:57:00,50.0,0.0,29.94,SE,136,0.0,0.0,0,0.00,,CLR,0.01,VWS V14.01,2013-05-12 11:57:00,
2013-05-12 08:02:00,50.4,0.0,29.94,SE,137,0.0,0.0,0,0.00,,CLR,0.01,VWS V14.01,2013-05-12 12:02:00,
2013-05-12 08:07:00,50.9,0.0,29.94,SE,137,0.0,0.0,0,0.00,,CLR,0.01,VWS V14.01,2013-05-12 12:07:00,
2013-05-12 08:12:00,51.8,0.0,29.94,SE,136,0.0,0.0,0,0.00,,CLR,0.01,VWS V14.01,2013-05-12 12:12:00,
2013-05-12 08:17:00,52.5,0.0,29.94,SE,136,0.0,0.0,0,0.00,,CLR,0.01,VWS V14.01,2013-05-12 12:17:00,
2013-05-12 08:22:00,53.7,0.0,29.94,SE,137,0.0,0.0,0,0.00,,CLR,0.01,VWS V14.01,2013-05-12 12:22:00,
2013-05-12 08:27:00,54.6,0.0,29.94,SE,136,0.0,0.0,0,0.00,,CLR,0.01,VWS V14.01,2013-05-12 12:27:00,
2013-05-12 08:32:00,55.4,0.0,29.95,SE,137,0.0,0.0,0,0.00,,CLR,0.01,VWS V14.01,2013-05-12 12:32:00,
2013-05-12 08:37:00,56.2,0.0,29.95,SE,139,0.0,0.0,0,0.00,,CLR,0.01,VWS V14.01,2013-05-12 12:37:00,
2013-05-12 08:42:00,56.6,0.0,29.95,SE,132,0.0,0.0,0,0.00,,CLR,0.01,VWS V14.01,2013-05-12 12:42:00,
2013-05-12 08:47:00,57.8,0.0,29.95,SE,132,0.0,0.0,0,0.00,,CLR,0.01,VWS V14.01,2013-05-12 12:47:00,
2013-05-12 08:52:00,59.0,0.0,29.95,SE,132,0.0,0.0,0,0.00,,CLR,0.01,VWS V14.01,2013-05-12 12:52:00,
2013-05-12 08:57:00,60.3,0.0,29.95,ESE,119,0.0,0.0,0,0.00,,CLR,0.01,VWS V14.01,2013-05-12 12:57:00,
2013-05-12 09:02:00,61.2,0.0,29.96,ESE,120,0.0,0.0,0,0.00,,CLR,0.01,VWS V14.01,2013-05-12 13:02:00,
2013-05-12 09:07:00,61.6,0.0,29.96,East,101,0.0,0.0,0,0.00,,CLR,0.01,VWS V14.01,2013-05-12 13:07:00,
2013-05-12 09:12:00,61.5,-14.5,29.96,SSW,193,0.0,0.0,4,0.00,,CLR,0.01,VWS V14.01,2013-05-12 13:12:00,
2013-05-12 09:17:00,62.1,34.2,29.96,East,82,0.0,0.0,35,0.00,,CLR,0.01,VWS V14.01,2013-05-12 13:17:00,
2013-05-12 09:22:00,62.4,33.7,29.96,ENE,68,0.0,0.0,34,0.00,,CLR,0.01,VWS V14.01,2013-05-12 13:22:00,
2013-05-12 09:27:00,62.4,41.9,29.96,SE,129,0.0,0.0,47,0.00,,CLR,0.01,VWS V14.01,2013-05-12 13:27:00,
2013-05-12 09:32:00,63.0,41.3,29.96,ENE,72,0.0,0.0,45,0.00,,CLR,0.01,VWS V14.01,2013-05-12 13:32:00,
2013-05-12 09:37:00,63.1,45.7,29.96,WSW,255,0.0,0.0,53,0.00,,CLR,0.01,VWS V14.01,2013-05-12 13:37:00,
2013-05-12 09:42:00,62.9,47.5,29.96,WSW,255,0.0,0.0,57,0.00,,CLR,0.01,VWS V14.01,2013-05-12 13:42:00,
2013-05-12 09:47:00,62.0,47.5,29.96,WNW,293,0.0,0.0,59,0.00,,CLR,0.01,VWS V14.01,2013-05-12 13:47:00,
2013-05-12 09:52:00,62.4,47.5,29.96,NNW,332,0.0,0.0,58,0.00,,CLR,0.01,VWS V14.01,2013-05-12 13:52:00,
2013-05-12 09:57:00,63.0,48.0,29.96,ENE,65,0.0,0.0,58,0.00,,CLR,0.01,VWS V14.01,2013-05-12 13:57:00,
2013-05-12 10:02:00,63.4,48.4,29.96,NNW,335,0.0,0.0,58,0.00,,CLR,0.01,VWS V14.01,2013-05-12 14:02:00,
2013-05-12 10:07:00,63.3,48.3,29.96,West,278,0.0,0.0,58,0.00,,CLR,0.01,VWS V14.01,2013-05-12 14:07:00,
2013-05-12 10:12:00,63.5,48.5,29.96,North,359,0.0,0.0,58,0.00,,CLR,0.01,VWS V14.01,2013-05-12 14:12:00,
2013-05-12 10:17:00,64.0,49.4,29.95,WSW,240,0.0,0.0,59,0.00,,CLR,0.01,VWS V14.01,2013-05-12 14:17:00,
2013-05-12 10:22:00,64.9,50.2,29.95,NNE,25,0.0,0.0,59,0.00,,CLR,0.01,VWS V14.01,2013-05-12 14:22:00,
2013-05-12 10:27:00,65.3,48.2,29.95,ESE,117,0.0,0.0,54,0.00,,CLR,0.01,VWS V14.01,2013-05-12 14:27:00,
2013-05-12 10:32:00,65.8,50.2,29.95,ENE,58,0.0,0.0,57,0.00,,CLR,0.01,VWS V14.01,2013-05-12 14:32:00,
2013-05-12 10:37:00,65.9,49.8,29.95,ENE,65,0.0,0.0,56,0.00,,CLR,0.01,VWS V14.01,2013-05-12 14:37:00,
2013-05-12 10:42:00,65.6,49.0,29.95,NNW,328,0.0,0.0,55,0.00,,CLR,0.01,VWS V14.01,2013-05-12 14:42:00,
2013-05-12 10:47:00,64.9,47.4,29.95,ENE,60,0.0,0.0,53,0.00,,CLR,0.01,VWS V14.01,2013-05-12 14:47:00,
2013-05-12 10:52:00,65.1,48.5,29.95,WNW,297,0.0,0.0,55,0.00,,CLR,0.01,VWS V14.01,2013-05-12 14:52:00,
2013-05-12 10:57:00,65.4,48.8,29.95,NNE,22,0.0,0.0,55,0.00,,CLR,0.01,VWS V14.01,2013-05-12 14:57:00,
2013-05-12 11:02:00,65.9,48.3,29.95,ENE,71,0.0,0.0,53,0.00,,CLR,0.01,VWS V14.01,2013-05-12 15:02:00,
2013-05-12 11:07:00,66.2,48.1,29.95,North,1,0.0,0.0,52,0.00,,CLR,0.01,VWS V14.01,2013-05-12 15:07:00,
2013-05-12 11:12:00,66.7,48.5,29.95,NNE,30,0.0,0.0,52,0.00,,CLR,0.01,VWS V14.01,2013-05-12 15:12:00,
2013-05-12 11:17:00,67.1,48.9,29.95,NNW,328,0.0,0.0,52,0.00,,CLR,0.01,VWS V14.01,2013-05-12 15:17:00,
2013-05-12 11:22:00,67.7,49.5,29.95,NW,316,0.0,0.0,52,0.00,,CLR,0.01,VWS V14.01,2013-05-12 15:22:00,
2013-05-12 11:27:00,67.9,48.6,29.95,NNW,331,0.0,0.0,50,0.00,,CLR,0.01,VWS V14.01,2013-05-12 15:27:00,
2013-05-12 11:32:00,68.0,50.2,29.96,NE,55,0.0,0.0,53,0.00,,CLR,0.01,VWS V14.01,2013-05-12 15:32:00,
2013-05-12 11:37:00,68.4,48.5,29.96,NE,41,0.0,0.0,49,0.00,,CLR,0.01,VWS V14.01,2013-05-12 15:37:00,
2013-05-12 11:42:00,68.8,49.4,29.96,NW,316,0.0,0.0,50,0.00,,CLR,0.01,VWS V14.01,2013-05-12 15:42:00,
2013-05-12 11:47:00,68.4,49.1,29.96,WNW,294,0.0,0.0,50,0.00,,CLR,0.01,VWS V14.01,2013-05-12 15:47:00,
2013-05-12 11:52:00,68.6,49.8,29.96,NNE,15,0.0,0.0,51,0.00,,CLR,0.01,VWS V14.01,2013-05-12 15:52:00,
2013-05-12 11:57:00,69.0,49.1,29.96,NE,43,0.0,0.0,49,0.00,,CLR,0.01,VWS V14.01,2013-05-12 15:57:00,
2013-05-12 12:02:00,69.2,50.3,29.96,NW,319,0.0,0.0,51,0.00,,CLR,0.01,VWS V14.01,2013-05-12 16:02:00,
2013-05-12 12:07:00,68.9,47.9,29.96,North,358,0.0,0.0,47,0.00,,CLR,0.01,VWS V14.01,2013-05-12 16:07:00,
2013-05-12 12:12:00,68.3,47.9,29.96,NE,47,0.0,0.0,48,0.00,,CLR,0.01,VWS V14.01,2013-05-12 16:12:00,
2013-05-12 12:17:00,68.3,49.0,29.96,NNW,347,0.0,0.0,50,0.00,,CLR,0.01,VWS V14.01,2013-05-12 16:17:00,
2013-05-12 12:22:00,68.8,47.2,29.97,NNE,13,0.0,0.0,46,0.00,,CLR,0.01,VWS V14.01,2013-05-12 16:22:00,
2013-05-12 12:27:00,68.4,48.5,29.96,ESE,110,0.0,0.0,49,0.00,,CLR,0.01,VWS V14.01,2013-05-12 16:27:00,
2013-05-12 12:32:00,68.8,46.6,29.96,ENE,62,0.0,0.0,45,0.00,,CLR,0.01,VWS V14.01,2013-05-12 16:32:00,
2013-05-12 12:37:00,68.1,46.6,29.96,ENE,68,0.0,0.0,46,0.00,,CLR,0.01,VWS V14.01,2013-05-12 16:37:00,
2013-05-12 12:42:00,68.8,46.6,29.97,ESE,115,0.0,0.0,45,0.00,,CLR,0.01,VWS V14.01,2013-05-12 16:42:00,
2013-05-12 12:47:00,69.0,46.2,29.97,NE,50,0.0,0.0,44,0.00,,CLR,0.01,VWS V14.01,2013-05-12 16:47:00,
2013-05-12 12:52:00,67.4,44.2,29.97,NNW,330,0.0,0.0,43,0.00,,CLR,0.01,VWS V14.01,2013-05-12 16:52:00,
2013-05-12 12:57:00,66.4,44.4,29.97,NE,44,0.0,0.0,45,0.00,,CLR,0.01,VWS V14.01,2013-05-12 16:57:00,
2013-05-12 13:02:00,66.6,47.4,29.97,NW,316,0.0,0.0,50,0.00,,CLR,0.01,VWS V14.01,2013-05-12 17:02:00,
2013-05-12 13:07:00,66.9,44.9,29.97,NE,41,0.0,0.0,45,0.00,,CLR,0.01,VWS V14.01,2013-05-12 17:07:00,
2013-05-12 13:12:00,67.7,44.4,29.97,ENE,65,0.0,0.0,43,0.00,,CLR,0.01,VWS V14.01,2013-05-12 17:12:00,
2013-05-12 13:17:00,68.3,47.9,29.97,WSW,252,0.0,0.0,48,0.00,,CLR,0.01,VWS V14.01,2013-05-12 17:17:00,
2013-05-12 13:22:00,68.7,45.3,29.97,NNW,328,0.0,0.0,43,0.00,,CLR,0.01,VWS V14.01,2013-05-12 17:22:00,
2013-05-12 13:27:00,68.9,45.5,29.97,NW,324,0.0,0.0,43,0.00,,CLR,0.01,VWS V14.01,2013-05-12 17:27:00,
2013-05-12 13:32:00,69.5,44.8,29.97,North,10,0.0,0.0,41,0.00,,CLR,0.01,VWS V14.01,2013-05-12 17:32:00,
2013-05-12 13:37:00,69.2,45.8,29.97,North,354,0.0,0.0,43,0.00,,CLR,0.01,VWS V14.01,2013-05-12 17:37:00,
2013-05-12 13:42:00,69.5,47.8,29.97,ENE,62,0.0,0.0,46,0.00,,CLR,0.01,VWS V14.01,2013-05-12 17:42:00,
2013-05-12 13:47:00,69.5,46.0,29.97,NW,316,0.0,0.0,43,0.00,,CLR,0.01,VWS V14.01,2013-05-12 17:47:00,
2013-05-12 13:52:00,69.7,46.8,29.97,NE,52,0.0,0.0,44,0.00,,CLR,0.01,VWS V14.01,2013-05-12 17:52:00,
2013-05-12 13:57:00,69.0,45.0,29.97,North,359,0.0,0.0,42,0.00,,CLR,0.01,VWS V14.01,2013-05-12 17:57:00,
2013-05-12 14:02:00,69.3,45.9,29.97,WNW,287,0.0,0.0,43,0.00,,CLR,0.01,VWS V14.01,2013-05-12 18:02:00,
2013-05-12 14:07:00,69.2,45.8,29.98,East,79,0.0,0.0,43,0.00,,CLR,0.01,VWS V14.01,2013-05-12 18:07:00,
2013-05-12 14:12:00,69.1,45.7,29.97,North,354,0.0,0.0,43,0.00,,CLR,0.01,VWS V14.01,2013-05-12 18:12:00,
2013-05-12 14:17:00,69.3,45.2,29.97,NW,323,0.0,0.0,42,0.00,,CLR,0.01,VWS V14.01,2013-05-12 18:17:00,
2013-05-12 14:22:00,69.3,44.6,29.97,WNW,295,0.0,0.0,41,0.00,,CLR,0.01,VWS V14.01,2013-05-12 18:22:00,
2013-05-12 14:27:00,69.4,46.0,29.97,SE,124,0.0,0.0,43,0.00,,CLR,0.01,VWS V14.01,2013-05-12 18:27:00,
2013-05-12 14:32:00,69.2,43.9,29.97,WNW,293,0.0,0.0,40,0.00,,CLR,0.01,VWS V14.01,2013-05-12 18:32:00,
2013-05-12 14:37:00,69.4,45.3,29.97,NE,51,0.0,0.0,42,0.00,,CLR,0.01,VWS V14.01,2013-05-12 18:37:00,
2013-05-12 14:42:00,69.4,43.4,29.97,NW,307,0.0,0.0,39,0.00,,CLR,0.01,VWS V14.01,2013-05-12 18:42:00,
2013-05-12 14:47:00,69.5,46.0,29.97,North,354,0.0,0.0,43,0.00,,CLR,0.01,VWS V14.01,2013-05-12 18:47:00,
2013-05-12 14:52:00,69.3,42.6,29.97,WSW,250,0.0,0.0,38,0.00,,CLR,0.01,VWS V14.01,2013-05-12 18:52:00,
2013-05-12 14:57:00,69.2,43.2,29.97,ENE,70,0.0,0.0,39,0.00,,CLR,0.01,VWS V14.01,2013-05-12 18:57:00,
2013-05-12 15:02:00,69.4,46.0,29.97,SW,231,0.0,0.0,43,0.00,,CLR,0.01,VWS V14.01,2013-05-12 19:02:00,
2013-05-12 15:07:00,68.9,40.2,29.97,ESE,122,0.0,0.0,35,0.00,,CLR,0.01,VWS V14.01,2013-05-12 19:07:00,
2013-05-12 18:37:00,63.1,36.4,30.01,West,264,0.0,0.0,37,0.00,,CLR,0.01,VWS V14.01,2013-05-12 22:37:00,
2013-05-12 18:42:00,62.9,36.9,30.01,East,93,3.0,4.0,38,0.00,,CLR,0.01,VWS V14.01,2013-05-12 22:42:00,
2013-05-12 18:47:00,62.8,36.8,30.01,NE,55,1.0,4.0,38,0.00,,CLR,0.01,VWS V14.01,2013-05-12 22:47:00,
2013-05-12 18:52:00,62.7,36.8,30.01,NW,313,1.0,4.0,38,0.00,,CLR,0.01,VWS V14.01,2013-05-12 22:52:00,
2013-05-12 18:57:00,62.6,38.0,30.01,NE,53,1.0,4.0,40,0.00,,CLR,0.01,VWS V14.01,2013-05-12 22:57:00,
2013-05-12 19:02:00,62.2,37.6,30.01,NE,44,1.0,6.0,40,0.00,,CLR,0.01,VWS V14.01,2013-05-12 23:02:00,
2013-05-12 19:07:00,61.8,36.6,30.01,NNE,29,0.0,6.0,39,0.00,,CLR,0.01,VWS V14.01,2013-05-12 23:07:00,
2013-05-12 19:12:00,61.5,37.0,30.01,NNW,332,0.0,6.0,40,0.00,,CLR,0.01,VWS V14.01,2013-05-12 23:12:00,
2013-05-12 19:17:00,61.2,37.3,30.01,North,3,0.0,6.0,41,0.00,,CLR,0.01,VWS V14.01,2013-05-12 23:17:00,
2013-05-12 19:22:00,60.9,36.4,30.01,North,352,2.0,6.0,40,0.00,,CLR,0.01,VWS V14.01,2013-05-12 23:22:00,
2013-05-12 19:27:00,60.9,37.7,30.02,ENE,63,0.0,6.0,42,0.00,,CLR,0.01,VWS V14.01,2013-05-12 23:27:00,
2013-05-12 19:32:00,60.6,36.8,30.02,NNW,330,0.0,3.0,41,0.00,,CLR,0.01,VWS V14.01,2013-05-12 23:32:00,
2013-05-12 19:37:00,60.3,37.1,30.02,NE,36,1.0,4.0,42,0.00,,CLR,0.01,VWS V14.01,2013-05-12 23:37:00,
2013-05-12 19:42:00,60.0,36.9,30.02,ENE,65,1.0,4.0,42,0.00,,CLR,0.01,VWS V14.01,2013-05-12 23:42:00,
2013-05-12 19:47:00,59.7,36.6,30.03,WNW,298,1.0,4.0,42,0.00,,CLR,0.01,VWS V14.01,2013-05-12 23:47:00,
2013-05-12 19:52:00,59.3,38.5,30.03,ENE,64,0.0,4.0,46,0.00,,CLR,0.01,VWS V14.01,2013-05-12 23:52:00,
2013-05-12 19:57:00,58.8,37.5,30.02,NW,304,0.0,4.0,45,0.00,,CLR,0.01,VWS V14.01,2013-05-12 23:57:00,
2013-05-12 20:02:00,58.4,37.7,30.02,NNW,330,0.0,2.0,46,0.00,,CLR,0.01,VWS V14.01,2013-05-13 00:02:00,
2013-05-12 20:07:00,58.0,36.2,30.03,NW,314,0.0,3.0,44,0.00,,CLR,0.01,VWS V14.01,2013-05-13 00:07:00,
2013-05-12 20:12:00,57.9,36.1,30.03,East,89,0.0,3.0,44,0.00,,CLR,0.01,VWS V14.01,2013-05-13 00:12:00,
2013-05-12 20:17:00,57.8,36.6,30.03,ENE,62,0.0,3.0,45,0.00,,CLR,0.01,VWS V14.01,2013-05-13 00:17:00,
2013-05-12 20:22:00,57.4,36.2,30.03,NE,55,0.0,3.0,45,0.00,,CLR,0.01,VWS V14.01,2013-05-13 00:22:00,
2013-05-12 20:27:00,57.1,36.0,30.03,NE,55,0.0,3.0,45,0.00,,CLR,0.01,VWS V14.01,2013-05-13 00:27:00,
2013-05-12 20:32:00,56.6,36.6,30.03,NE,55,0.0,0.0,47,0.00,,CLR,0.01,VWS V14.01,2013-05-13 00:32:00,
2013-05-12 20:37:00,56.1,36.7,30.04,ENE,58,0.0,1.0,48,0.00,,CLR,0.01,VWS V14.01,2013-05-13 00:37:00,
2013-05-12 20:42:00,55.7,36.3,30.03,ENE,58,0.0,1.0,48,0.00,,CLR,0.01,VWS V14.01,2013-05-13 00:42:00,
2013-05-12 20:47:00,55.4,36.6,30.04,ENE,58,0.0,1.0,49,0.00,,CLR,0.01,VWS V14.01,2013-05-13 00:47:00,
2013-05-12 20:52:00,54.9,36.6,30.04,ENE,58,0.0,1.0,50,0.00,,CLR,0.01,VWS V14.01,2013-05-13 00:52:00,
2013-05-12 20:57:00,54.3,38.0,30.04,ENE,58,0.0,1.0,54,0.00,,CLR,0.01,VWS V14.01,2013-05-13 00:57:00,
2013-05-12 21:02:00,53.7,37.5,30.04,ENE,58,0.0,0.0,54,0.00,,CLR,0.01,VWS V14.01,2013-05-13 01:02:00,
2013-05-12 21:07:00,53.6,36.4,30.04,ENE,58,0.0,0.0,52,0.00,,CLR,0.01,VWS V14.01,2013-05-13 01:07:00,
2013-05-12 21:12:00,53.7,36.5,30.04,ENE,58,0.0,1.0,52,0.00,,CLR,0.01,VWS V14.01,2013-05-13 01:12:00,
2013-05-12 21:17:00,53.7,37.0,30.05,ENE,58,0.0,1.0,53,0.00,,CLR,0.01,VWS V14.01,2013-05-13 01:17:00,
2013-05-12 21:22:00,53.5,36.8,30.05,ENE,58,0.0,1.0,53,0.00,,CLR,0.01,VWS V14.01,2013-05-13 01:22:00,
2013-05-12 21:27:00,53.2,36.5,30.05,ENE,58,0.0,1.0,53,0.00,,CLR,0.01,VWS V14.01,2013-05-13 01:27:00,
2013-05-12 21:32:00,52.8,38.5,30.05,NE,56,0.0,1.0,58,0.00,,CLR,0.01,VWS V14.01,2013-05-13 01:32:00,
2013-05-12 21:37:00,52.2,37.0,30.05,ENE,57,0.0,1.0,56,0.00,,CLR,0.01,VWS V14.01,2013-05-13 01:37:00,
2013-05-12 21:42:00,51.8,37.5,30.05,ENE,57,1.0,1.0,58,0.00,,CLR,0.01,VWS V14.01,2013-05-13 01:42:00,
2013-05-12 21:47:00,51.9,35.8,30.05,ENE,58,0.0,1.0,54,0.00,,CLR,0.01,VWS V14.01,2013-05-13 01:47:00,
2013-05-12 21:52:00,52.4,38.5,30.06,SE,136,1.0,1.0,59,0.00,,CLR,0.01,VWS V14.01,2013-05-13 01:52:00,
2013-05-12 21:57:00,52.0,37.7,30.06,South,172,0.0,1.0,58,0.00,,CLR,0.01,VWS V14.01,2013-05-13 01:57:00,
2013-05-12 22:02:00,51.5,37.7,30.07,South,172,0.0,0.0,59,0.00,,CLR,0.01,VWS V14.01,2013-05-13 02:02:00,
2013-05-12 22:07:00,51.0,37.6,30.07,South,172,0.0,0.0,60,0.00,,CLR,0.01,VWS V14.01,2013-05-13 02:07:00,
2013-05-12 22:12:00,50.3,37.0,30.07,South,172,0.0,0.0,60,0.00,,CLR,0.01,VWS V14.01,2013-05-13 02:12:00,
2013-05-12 22:18:00,49.6,36.7,30.07,South,172,0.0,0.0,61,0.00,,CLR,0.01,VWS V14.01,2013-05-13 02:18:00,
2013-05-12 22:23:00,49.0,36.2,30.07,South,172,0.0,0.0,61,0.00,,CLR,0.01,VWS V14.01,2013-05-13 02:23:00,
2013-05-12 22:29:00,48.5,34.8,30.07,South,172,0.0,0.0,59,0.00,,CLR,0.01,VWS V14.01,2013-05-13 02:29:00,
2013-05-12 22:34:00,48.3,35.1,30.07,South,172,0.0,0.0,60,0.00,,CLR,0.01,VWS V14.01,2013-05-13 02:34:00,
2013-05-12 22:39:00,48.3,34.2,30.07,SSE,159,0.0,1.0,58,0.00,,CLR,0.01,VWS V14.01,2013-05-13 02:39:00,
2013-05-12 22:44:00,48.1,34.0,30.07,SSE,160,0.0,1.0,58,0.00,,CLR,0.01,VWS V14.01,2013-05-13 02:44:00,
2013-05-12 22:49:00,47.9,33.4,30.08,SSE,160,0.0,1.0,57,0.00,,CLR,0.01,VWS V14.01,2013-05-13 02:49:00,
2013-05-12 22:54:00,47.5,33.0,30.07,SSE,160,0.0,1.0,57,0.00,,CLR,0.01,VWS V14.01,2013-05-13 02:54:00,
2013-05-12 22:59:00,47.1,31.3,30.07,SSE,160,0.0,1.0,54,0.00,,CLR,0.01,VWS V14.01,2013-05-13 02:59:00,
2013-05-12 23:04:00,46.7,30.0,30.07,SSE,160,0.0,0.0,52,0.00,,CLR,0.01,VWS V14.01,2013-05-13 03:04:00,
2013-05-12 23:09:00,46.4,28.8,30.07,SSE,160,0.0,0.0,50,0.00,,CLR,0.01,VWS V14.01,2013-05-13 03:09:00,
2013-05-12 23:14:00,46.1,28.0,30.07,SSE,160,0.0,0.0,49,0.00,,CLR,0.01,VWS V14.01,2013-05-13 03:14:00,
2013-05-12 23:19:00,45.7,26.6,30.07,SSE,160,0.0,0.0,47,0.00,,CLR,0.01,VWS V14.01,2013-05-13 03:19:00,
2013-05-12 23:24:00,45.4,25.9,30.07,SSE,160,0.0,0.0,46,0.00,,CLR,0.01,VWS V14.01,2013-05-13 03:24:00,
2013-05-12 23:29:00,45.1,24.0,30.08,SSE,160,0.0,0.0,43,0.00,,CLR,0.01,VWS V14.01,2013-05-13 03:29:00,
2013-05-12 23:34:00,44.8,22.0,30.08,SSE,160,0.0,0.0,40,0.00,,CLR,0.01,VWS V14.01,2013-05-13 03:34:00,
2013-05-12 23:39:00,44.3,20.3,30.07,SSE,160,0.0,0.0,38,0.00,,CLR,0.01,VWS V14.01,2013-05-13 03:39:00,
2013-05-12 23:44:00,44.0,18.8,30.08,SSE,160,0.0,0.0,36,0.00,,CLR,0.01,VWS V14.01,2013-05-13 03:44:00,
2013-05-12 23:49:00,43.8,18.0,30.08,SSE,160,0.0,0.0,35,0.00,,CLR,0.01,VWS V14.01,2013-05-13 03:49:00,
2013-05-12 23:54:00,43.6,16.4,30.08,SSE,160,0.0,0.0,33,0.00,,CLR,0.01,VWS V14.01,2013-05-13 03:54:00,
2013-05-12 23:59:00,43.5,14.9,30.08,SSE,160,0.0,0.0,31,0.00,,CLR,0.01,VWS V14.01,2013-05-13 03:59:00,